STARLINK-35536, 66261

Orbit data source: Space-Track

STARLINK-35536, 66261 is a payload satellite owned by SpaceX/Seattle (US) in LEO that was launched on Wed, 29 Oct 2025 UTC via an FALCON 9 launch vehicle from the Air Force Eastern Test Range (AFETR). Payload-class satellites include a variety of spacecraft equipped with specific instruments for various scientific and technological missions. These include communications satellites like Starlink; space stations such as the ISS; scientific satellites like the Hubble; Earth observation satellites from companies like Planet Labs, Umbra, and HawkEye 360; GPS; miniature CubeSats for education and research; and military/defense satellites.

Loading next visibility...
Identifier
66261, 2025-245AD
Orbit
LEO
Country
Flag of USUS
Related business
Manufacturer
SpaceX/Seattle
Mission
Operational Commercial Communications
Bus & Motor
STARLINK V2MO, Unknown motor
Mass
575 kg wet, ~530 kg dry
Launch date (UTC)
2025-10-29 (8 months ago)
Launch vehicle
FALCON 9
Launch site
Air Force Eastern Test Range (AFETR)
Object type
Payload
Rocket body
Debris
Shape & HBR
Box + 2 Pan, 17.7 m
Radar Cross Section
36.964 m², Large (>1 m²)

Expand to show TLE details & history
Last TLE update: 15 hours ago

TLE from 15 hours ago
0 STARLINK-35536
1 66261U 25245AD  26171.21574575  .00017644  00000-0  57836-3 0  9996
2 66261  53.1574 166.9610 0001210  95.1952 264.9187 15.31734621 36966
Epoch: 2026-06-20T05:10Z
TLE epoch observation values (Epoch: 2026-06-20T05:10:40.432Z)
Latitude
-0.00008°
Longitude
-179.14109°
Altitude
471.61 km
Speed
7.631 km/s
True Right ascension
11h 07m 50s
True Declination
0° 00' 00"
Sunlit
Object was in daylight at epoch
Visualization orbit readout
Latitude
Unknown
Longitude
Unknown
Altitude
Unknown
Speed
Unknown
Apparent Right ascension
Unknown
Apparent Declination
Unknown
Sunlit
N/A
Visualization observer readout
Local Sidereal Time
07:15:37
Azimuth
Unknown
Elevation
Unknown
Doppler factor
Unknown
Orbital elements
Apogee altitude
471.723 km
Perigee altitude
470.065 km
Semi-major axis
6,849.031 km
Eccentricity
0.00012
Inclination
53.1574°
RAAN
166.961°
Arg. of periapsis
95.1952°
True anomaly
264.90489°
Mean anomaly
264.9187°
Eccentric anomaly
264.91179°
Mean motion
3.82912 °/min
Orbital period
94.02 mins
BSTAR
0.00057836
Loading maneuver chart data...
Computing Atmospheric mass density...
Loading historical data...
Loading historical data...
Loading historical data...
Loading historical data...
Loading historical data...
Loading historical data...
Loading historical data...

Documentation

Showing up to 5 results
|